Time,TemperatureF,DewpointF,PressureIn,WindDirection,WindDirectionDegrees,WindSpeedMPH,WindSpeedGustMPH,Humidity,HourlyPrecipIn,Conditions,Clouds,dailyrainin,SoftwareType,DateUTC
2013-01-21 00:04:00,44.0,39.0,30.09,NW,314,0.0,1.0,84,0.00,,,0.00,,2013-01-21 05:04:00,
2013-01-21 00:12:00,44.0,39.0,30.09,NW,314,0.0,1.0,84,0.00,,,0.00,,2013-01-21 05:12:00,
2013-01-21 00:22:00,44.0,39.0,30.09,NW,314,0.0,1.0,84,0.00,,,0.00,,2013-01-21 05:22:00,
2013-01-21 00:34:00,43.0,39.0,30.08,NW,314,0.0,1.0,85,0.00,,,0.00,,2013-01-21 05:34:00,
2013-01-21 00:42:00,43.0,39.0,30.08,NW,314,0.0,1.0,85,0.00,,,0.00,,2013-01-21 05:42:00,
2013-01-21 00:53:00,43.0,39.0,30.08,NW,314,0.0,1.0,85,0.00,,,0.00,,2013-01-21 05:53:00,
2013-01-21 01:03:00,43.0,38.0,30.08,WNW,301,0.0,1.0,84,0.00,,,0.00,,2013-01-21 06:03:00,
2013-01-21 01:13:00,43.0,38.0,30.08,WNW,301,0.0,1.0,84,0.00,,,0.00,,2013-01-21 06:13:00,
2013-01-21 01:23:00,43.0,38.0,30.08,WNW,301,0.0,2.0,83,0.00,,,0.00,,2013-01-21 06:23:00,
2013-01-21 01:33:00,43.0,38.0,30.08,WNW,300,0.0,2.0,84,0.00,,,0.00,,2013-01-21 06:33:00,
2013-01-21 01:43:00,43.0,38.0,30.08,WNW,300,0.0,2.0,84,0.00,,,0.00,,2013-01-21 06:43:00,
2013-01-21 01:53:00,43.0,38.0,30.08,WNW,298,0.0,2.0,84,0.00,,,0.00,,2013-01-21 06:53:00,
2013-01-21 02:03:00,42.0,38.0,30.08,WNW,302,0.0,2.0,84,0.00,,,0.00,,2013-01-21 07:03:00,
2013-01-21 02:13:00,42.0,38.0,30.08,WNW,302,0.0,2.0,84,0.00,,,0.00,,2013-01-21 07:13:00,
2013-01-21 02:23:00,42.0,37.0,30.08,NW,306,1.0,2.0,83,0.00,,,0.00,,2013-01-21 07:23:00,
2013-01-21 02:33:00,42.0,37.0,30.08,WNW,302,1.0,3.0,82,0.00,,,0.00,,2013-01-21 07:33:00,
2013-01-21 02:42:00,42.0,37.0,30.08,WNW,302,1.0,3.0,82,0.00,,,0.00,,2013-01-21 07:42:00,
2013-01-21 02:53:00,42.0,37.0,30.08,WNW,293,1.0,4.0,81,0.00,,,0.00,,2013-01-21 07:53:00,
2013-01-21 03:03:00,42.0,36.0,30.08,NW,305,1.0,3.0,80,0.00,,,0.00,,2013-01-21 08:03:00,
2013-01-21 03:14:00,42.0,36.0,30.08,NW,305,1.0,3.0,80,0.00,,,0.00,,2013-01-21 08:14:00,
2013-01-21 03:23:00,42.0,36.0,30.08,NW,305,1.0,3.0,80,0.00,,,0.00,,2013-01-21 08:23:00,
2013-01-21 03:33:00,42.0,36.0,30.08,WNW,294,1.0,3.0,80,0.00,,,0.00,,2013-01-21 08:33:00,
2013-01-21 03:42:00,42.0,36.0,30.08,WNW,294,1.0,3.0,80,0.00,,,0.00,,2013-01-21 08:42:00,
2013-01-21 03:53:00,41.0,36.0,30.08,WNW,301,1.0,2.0,82,0.00,,,0.00,,2013-01-21 08:53:00,
2013-01-21 04:03:00,40.0,36.0,30.08,WNW,301,1.0,3.0,84,0.00,,,0.00,,2013-01-21 09:03:00,
2013-01-21 04:12:00,40.0,36.0,30.08,WNW,301,1.0,3.0,84,0.00,,,0.00,,2013-01-21 09:12:00,
2013-01-21 04:23:00,40.0,36.0,30.08,WNW,299,0.0,3.0,85,0.00,,,0.00,,2013-01-21 09:23:00,
2013-01-21 04:33:00,39.0,35.0,30.08,NW,313,0.0,2.0,86,0.00,,,0.00,,2013-01-21 09:33:00,
2013-01-21 04:42:00,39.0,35.0,30.08,NW,313,0.0,2.0,86,0.00,,,0.00,,2013-01-21 09:42:00,
2013-01-21 04:53:00,38.0,34.0,30.08,NW,313,0.0,1.0,87,0.00,,,0.00,,2013-01-21 09:53:00,
2013-01-21 05:02:00,38.0,35.0,30.07,NW,313,0.0,2.0,88,0.00,,,0.00,,2013-01-21 10:02:00,
2013-01-21 05:12:00,38.0,35.0,30.07,NW,313,0.0,2.0,88,0.00,,,0.00,,2013-01-21 10:12:00,
2013-01-21 05:22:00,38.0,35.0,30.08,WNW,302,0.0,3.0,88,0.00,,,0.00,,2013-01-21 10:22:00,
2013-01-21 05:33:00,38.0,34.0,30.08,WNW,301,0.0,2.0,86,0.00,,,0.00,,2013-01-21 10:33:00,
2013-01-21 05:43:00,38.0,34.0,30.08,WNW,301,0.0,2.0,86,0.00,,,0.00,,2013-01-21 10:43:00,
2013-01-21 05:53:00,38.0,34.0,30.08,NW,316,0.0,2.0,86,0.00,,,0.00,,2013-01-21 10:53:00,
2013-01-21 06:03:00,38.0,34.0,30.08,NW,309,0.0,1.0,85,0.00,,,0.00,,2013-01-21 11:03:00,
2013-01-21 06:13:00,38.0,34.0,30.08,NW,309,0.0,1.0,85,0.00,,,0.00,,2013-01-21 11:13:00,
2013-01-21 06:23:00,38.0,34.0,30.07,NW,306,0.0,2.0,86,0.00,,,0.00,,2013-01-21 11:23:00,
2013-01-21 06:33:00,38.0,34.0,30.07,WNW,291,0.0,2.0,85,0.00,,,0.00,,2013-01-21 11:33:00,
2013-01-21 06:43:00,38.0,34.0,30.07,WNW,291,0.0,2.0,85,0.00,,,0.00,,2013-01-21 11:43:00,
2013-01-21 06:53:00,38.0,34.0,30.07,NW,309,0.0,2.0,84,0.00,,,0.00,,2013-01-21 11:53:00,
2013-01-21 07:02:00,38.0,34.0,30.08,NW,319,0.0,2.0,85,0.00,,,0.00,,2013-01-21 12:02:00,
2013-01-21 07:12:00,38.0,34.0,30.08,NW,319,0.0,2.0,85,0.00,,,0.00,,2013-01-21 12:12:00,
2013-01-21 07:22:00,38.0,34.0,30.08,NW,307,0.0,2.0,84,0.00,,,0.00,,2013-01-21 12:22:00,
2013-01-21 07:33:00,38.0,34.0,30.08,NW,316,0.0,1.0,85,0.00,,,0.00,,2013-01-21 12:33:00,
2013-01-21 07:42:00,38.0,34.0,30.08,NW,316,0.0,1.0,85,0.00,,,0.00,,2013-01-21 12:42:00,
2013-01-21 07:53:00,39.0,34.0,30.08,NW,305,0.0,2.0,83,0.00,,,0.00,,2013-01-21 12:53:00,
2013-01-21 08:03:00,41.0,36.0,30.08,WNW,303,0.0,1.0,81,0.00,,,0.00,,2013-01-21 13:03:00,
2013-01-21 08:13:00,41.0,36.0,30.08,WNW,303,0.0,1.0,81,0.00,,,0.00,,2013-01-21 13:13:00,
2013-01-21 08:23:00,43.0,37.0,30.08,North,9,0.0,1.0,78,0.00,,,0.00,,2013-01-21 13:23:00,
2013-01-21 08:33:00,45.0,38.0,30.08,NNE,15,0.0,1.0,77,0.00,,,0.00,,2013-01-21 13:33:00,
2013-01-21 08:43:00,45.0,38.0,30.08,NNE,15,0.0,1.0,77,0.00,,,0.00,,2013-01-21 13:43:00,
2013-01-21 08:54:00,46.0,39.0,30.08,NW,323,0.0,1.0,76,0.00,,,0.00,,2013-01-21 13:54:00,
2013-01-21 09:03:00,48.0,41.0,30.09,NNE,21,0.0,1.0,76,0.00,,,0.00,,2013-01-21 14:03:00,
2013-01-21 09:12:00,48.0,41.0,30.09,NNE,21,0.0,1.0,76,0.00,,,0.00,,2013-01-21 14:12:00,
2013-01-21 09:23:00,50.0,42.0,30.09,East,91,0.0,1.0,75,0.00,,,0.00,,2013-01-21 14:23:00,
2013-01-21 09:32:00,50.0,43.0,30.09,ENE,77,3.0,7.0,78,0.00,,,0.00,,2013-01-21 14:32:00,
2013-01-21 09:43:00,50.0,43.0,30.09,ENE,77,3.0,7.0,78,0.00,,,0.00,,2013-01-21 14:43:00,
2013-01-21 09:53:00,50.0,44.0,30.09,ENE,72,2.0,7.0,80,0.00,,,0.00,,2013-01-21 14:53:00,
2013-01-21 10:03:00,51.0,45.0,30.09,ENE,63,3.0,5.0,79,0.00,,,0.00,,2013-01-21 15:03:00,
2013-01-21 10:13:00,51.0,45.0,30.09,ENE,63,3.0,5.0,79,0.00,,,0.00,,2013-01-21 15:13:00,
2013-01-21 10:23:00,52.0,45.0,30.09,ENE,77,3.0,6.0,78,0.00,,,0.00,,2013-01-21 15:23:00,
2013-01-21 10:33:00,51.0,45.0,30.09,ENE,70,2.0,6.0,80,0.00,,,0.00,,2013-01-21 15:33:00,
2013-01-21 10:43:00,51.0,45.0,30.09,ENE,70,2.0,6.0,80,0.00,,,0.00,,2013-01-21 15:43:00,
2013-01-21 10:53:00,52.0,46.0,30.08,East,89,2.0,4.0,80,0.00,,,0.00,,2013-01-21 15:53:00,
2013-01-21 11:04:00,52.0,46.0,30.08,East,89,2.0,4.0,80,0.00,,,0.00,,2013-01-21 16:04:00,
2013-01-21 11:13:00,52.0,46.0,30.08,East,89,2.0,4.0,80,0.00,,,0.00,,2013-01-21 16:13:00,
2013-01-21 11:23:00,51.0,45.0,30.07,ENE,78,4.0,4.0,81,0.00,,,0.00,,2013-01-21 16:23:00,
2013-01-21 11:33:00,52.0,46.0,30.06,East,88,3.0,5.0,81,0.00,,,0.00,,2013-01-21 16:33:00,
2013-01-21 11:44:00,52.0,46.0,30.06,East,88,3.0,5.0,81,0.00,,,0.00,,2013-01-21 16:44:00,
2013-01-21 11:53:00,52.0,45.0,30.05,East,89,2.0,4.0,77,0.00,,,0.00,,2013-01-21 16:53:00,
2013-01-21 12:12:00,53.0,46.0,30.04,ESE,120,1.0,2.0,77,0.00,,,0.00,,2013-01-21 17:12:00,
2013-01-21 12:23:00,53.0,45.0,30.03,SE,134,1.0,2.0,75,0.00,,,0.00,,2013-01-21 17:23:00,
2013-01-21 12:33:00,54.0,46.0,30.02,East,98,2.0,3.0,74,0.00,,,0.00,,2013-01-21 17:33:00,
2013-01-21 12:43:00,54.0,46.0,30.02,East,98,2.0,3.0,74,0.00,,,0.00,,2013-01-21 17:43:00,
2013-01-21 12:53:00,54.0,47.0,30.01,East,100,2.0,3.0,77,0.00,,,0.00,,2013-01-21 17:53:00,
2013-01-21 13:03:00,54.0,47.0,29.99,ESE,115,2.0,3.0,78,0.00,,,0.00,,2013-01-21 18:03:00,
2013-01-21 13:12:00,54.0,47.0,29.99,ESE,115,2.0,3.0,78,0.00,,,0.00,,2013-01-21 18:12:00,
2013-01-21 13:23:00,54.0,48.0,29.98,East,100,1.0,3.0,80,0.00,,,0.00,,2013-01-21 18:23:00,
2013-01-21 13:33:00,54.0,48.0,29.97,ESE,113,3.0,4.0,81,0.00,,,0.00,,2013-01-21 18:33:00,
2013-01-21 13:43:00,54.0,48.0,29.97,ESE,113,3.0,4.0,81,0.00,,,0.00,,2013-01-21 18:43:00,
2013-01-21 13:53:00,54.0,49.0,29.96,East,91,2.0,3.0,82,0.00,,,0.00,,2013-01-21 18:53:00,
2013-01-21 14:03:00,54.0,49.0,29.96,East,84,1.0,3.0,82,0.00,,,0.00,,2013-01-21 19:03:00,
2013-01-21 14:12:00,54.0,49.0,29.96,East,84,1.0,3.0,82,0.00,,,0.00,,2013-01-21 19:12:00,
2013-01-21 14:22:00,55.0,49.0,29.95,East,88,2.0,3.0,79,0.00,,,0.00,,2013-01-21 19:22:00,
2013-01-21 14:33:00,57.0,48.0,29.94,SW,226,4.0,7.0,73,0.00,,,0.00,,2013-01-21 19:33:00,
2013-01-21 14:43:00,57.0,48.0,29.94,SW,226,4.0,7.0,73,0.00,,,0.00,,2013-01-21 19:43:00,
2013-01-21 14:53:00,59.0,48.0,29.93,SSW,204,13.0,16.0,66,0.00,,,0.00,,2013-01-21 19:53:00,
2013-01-21 15:03:00,59.0,47.0,29.92,SSW,204,12.0,15.0,65,0.00,,,0.00,,2013-01-21 20:03:00,
2013-01-21 15:12:00,59.0,47.0,29.92,SSW,204,12.0,15.0,65,0.00,,,0.00,,2013-01-21 20:12:00,
2013-01-21 15:23:00,59.0,49.0,29.92,SW,225,10.0,15.0,69,0.00,,,0.00,,2013-01-21 20:23:00,
2013-01-21 15:33:00,59.0,49.0,29.91,SSW,205,9.0,16.0,69,0.00,,,0.00,,2013-01-21 20:33:00,
2013-01-21 15:43:00,59.0,49.0,29.91,SSW,205,9.0,16.0,69,0.00,,,0.00,,2013-01-21 20:43:00,
2013-01-21 15:53:00,59.0,49.0,29.91,SW,224,7.0,16.0,69,0.00,,,0.00,,2013-01-21 20:53:00,
2013-01-21 16:04:00,59.0,49.0,29.91,SW,224,7.0,16.0,69,0.00,,,0.00,,2013-01-21 21:04:00,
2013-01-21 16:12:00,59.0,49.0,29.91,SW,224,7.0,16.0,69,0.00,,,0.00,,2013-01-21 21:12:00,
2013-01-21 16:23:00,58.0,49.0,29.90,SW,225,8.0,10.0,71,0.00,,,0.00,,2013-01-21 21:23:00,
2013-01-21 16:33:00,58.0,49.0,29.89,SW,229,8.0,11.0,72,0.00,,,0.00,,2013-01-21 21:33:00,
2013-01-21 16:43:00,58.0,49.0,29.89,SW,229,8.0,11.0,72,0.00,,,0.00,,2013-01-21 21:43:00,
2013-01-21 16:54:00,58.0,49.0,29.90,SW,215,8.0,11.0,72,0.00,,,0.00,,2013-01-21 21:54:00,
2013-01-21 17:03:00,57.0,48.0,29.88,SSW,210,7.0,10.0,73,0.00,,,0.00,,2013-01-21 22:03:00,
2013-01-21 17:13:00,57.0,48.0,29.88,SSW,210,7.0,10.0,73,0.00,,,0.00,,2013-01-21 22:13:00,
2013-01-21 17:23:00,56.0,49.0,29.89,SW,223,7.0,8.0,76,0.00,,,0.00,,2013-01-21 22:23:00,
2013-01-21 17:33:00,56.0,49.0,29.89,SW,223,7.0,8.0,76,0.00,,,0.00,,2013-01-21 22:33:00,
2013-01-21 17:43:00,56.0,49.0,29.89,SW,223,7.0,8.0,76,0.00,,,0.00,,2013-01-21 22:43:00,
2013-01-21 17:52:00,56.0,49.0,29.89,SSW,212,8.0,9.0,76,0.00,,,0.00,,2013-01-21 22:52:00,
2013-01-21 18:03:00,56.0,49.0,29.89,SW,222,8.0,9.0,77,0.00,,,0.00,,2013-01-21 23:03:00,
2013-01-21 18:13:00,56.0,49.0,29.89,SW,222,8.0,9.0,77,0.00,,,0.00,,2013-01-21 23:13:00,
2013-01-21 18:23:00,56.0,49.0,29.89,SW,222,8.0,9.0,77,0.00,,,0.00,,2013-01-21 23:23:00,
2013-01-21 18:33:00,56.0,49.0,29.89,SW,222,8.0,9.0,77,0.00,,,0.00,,2013-01-21 23:33:00,
2013-01-21 18:42:00,56.0,49.0,29.89,SW,222,8.0,9.0,77,0.00,,,0.00,,2013-01-21 23:42:00,
2013-01-21 18:53:00,55.0,48.0,29.90,SW,231,6.0,10.0,77,0.00,,,0.00,,2013-01-21 23:53:00,
2013-01-21 19:03:00,55.0,48.0,29.90,WSW,239,5.0,8.0,77,0.00,,,0.00,,2013-01-22 00:03:00,
2013-01-21 19:12:00,55.0,48.0,29.90,WSW,239,5.0,8.0,77,0.00,,,0.00,,2013-01-22 00:12:00,
2013-01-21 19:23:00,55.0,48.0,29.91,SW,226,3.0,8.0,77,0.00,,,0.00,,2013-01-22 00:23:00,
2013-01-21 19:33:00,55.0,48.0,29.91,SW,226,3.0,8.0,77,0.00,,,0.00,,2013-01-22 00:33:00,
2013-01-21 19:43:00,55.0,48.0,29.91,SW,226,3.0,8.0,77,0.00,,,0.00,,2013-01-22 00:43:00,
2013-01-21 19:53:00,55.0,48.0,29.91,SW,226,3.0,8.0,77,0.00,,,0.00,,2013-01-22 00:53:00,
2013-01-21 20:02:00,54.0,47.0,29.90,West,266,3.0,8.0,77,0.00,,,0.00,,2013-01-22 01:02:00,
2013-01-21 20:12:00,54.0,47.0,29.90,West,266,3.0,8.0,77,0.00,,,0.00,,2013-01-22 01:12:00,
2013-01-21 20:23:00,54.0,47.0,29.91,SW,224,2.0,7.0,77,0.00,,,0.00,,2013-01-22 01:23:00,
2013-01-21 20:33:00,54.0,47.0,29.91,West,274,1.0,5.0,76,0.00,,,0.00,,2013-01-22 01:33:00,
2013-01-21 20:43:00,54.0,47.0,29.91,West,274,1.0,5.0,76,0.00,,,0.00,,2013-01-22 01:43:00,
2013-01-21 20:52:00,54.0,46.0,29.91,West,269,2.0,5.0,75,0.00,,,0.00,,2013-01-22 01:52:00,
2013-01-21 21:02:00,54.0,46.0,29.91,West,269,2.0,5.0,75,0.00,,,0.00,,2013-01-22 02:02:00,
2013-01-21 21:12:00,54.0,46.0,29.91,West,269,2.0,5.0,75,0.00,,,0.00,,2013-01-22 02:12:00,
2013-01-21 21:22:00,54.0,46.0,29.92,West,274,1.0,3.0,75,0.00,,,0.00,,2013-01-22 02:22:00,
2013-01-21 21:32:00,53.0,45.0,29.92,West,271,1.0,5.0,75,0.00,,,0.00,,2013-01-22 02:32:00,
2013-01-21 21:43:00,53.0,45.0,29.92,West,271,1.0,5.0,75,0.00,,,0.00,,2013-01-22 02:43:00,
2013-01-21 21:53:00,53.0,45.0,29.92,West,271,1.0,5.0,75,0.00,,,0.00,,2013-01-22 02:53:00,
2013-01-21 22:03:00,52.0,45.0,29.92,West,266,1.0,3.0,76,0.00,,,0.00,,2013-01-22 03:03:00,
2013-01-21 22:12:00,52.0,45.0,29.92,West,266,1.0,3.0,76,0.00,,,0.00,,2013-01-22 03:12:00,
2013-01-21 22:22:00,52.0,45.0,29.92,West,264,1.0,3.0,76,0.00,,,0.00,,2013-01-22 03:22:00,
2013-01-21 22:33:00,52.0,45.0,29.92,West,272,1.0,4.0,76,0.00,,,0.00,,2013-01-22 03:33:00,
2013-01-21 22:42:00,52.0,45.0,29.92,West,272,1.0,4.0,76,0.00,,,0.00,,2013-01-22 03:42:00,
2013-01-21 22:52:00,51.0,43.0,29.92,West,276,1.0,4.0,75,0.00,,,0.00,,2013-01-22 03:52:00,
2013-01-21 23:03:00,52.0,44.0,29.92,West,262,1.0,5.0,73,0.00,,,0.00,,2013-01-22 04:03:00,
2013-01-21 23:12:00,52.0,44.0,29.92,West,262,1.0,5.0,73,0.00,,,0.00,,2013-01-22 04:12:00,
2013-01-21 23:22:00,52.0,42.0,29.92,WSW,249,2.0,7.0,68,0.00,,,0.00,,2013-01-22 04:22:00,
2013-01-21 23:33:00,53.0,41.0,29.92,West,264,2.0,6.0,63,0.00,,,0.00,,2013-01-22 04:33:00,
2013-01-21 23:42:00,53.0,41.0,29.92,West,264,2.0,6.0,63,0.00,,,0.00,,2013-01-22 04:42:00,
2013-01-21 23:50:00,52.0,40.0,29.93,NW,312,1.0,4.0,63,0.00,,,0.00,,2013-01-22 04:50:00,
2013-01-21 23:52:00,53.0,41.0,29.92,West,263,1.0,4.0,63,0.00,,,0.00,,2013-01-22 04:52:00,